Content
SEND FEEDBACK

Daily
Averages
Monthly
Summary
Turkmenistan

KURTILE, TURKMENISTAN


Home > Asia > Turkmenistan
Elevation: 748 feet     Latitude: 37 58N     Longitude: 058 19E

WEATHER
 
SELECT A DAY
Number of Records: 177,024;   Date Range: 3/15/97 - 7/7/14
 
SHARE

PRINT THIS DATA

[ ← Previous Day ]
WEATHER ALMANAC - NOVEMBER 9, 2013
[ Next Day → ]
[ °C ]   °F
Weather ElementAverageHighLow
Temperature57 °F71.6 °F (3:00 pm)44 °F (5:00 am)
Dewpoint35.7 °F39 °F (8:00 pm)32 °F (3:00 pm)
Humidity45.4 %71 % (5:00 am)14 % (2:00 pm)
Barometer30.17 in30.30 in (11:00 pm)30.06 in (12:30 am)
Wind Speed5.1 mph15.7 mph (2:00 pm)
Weather ElementAverage
Visibility5.7 mi
Wind DirectionSSW (208.4 °)

Weather ElementTotal
Precipitation---
Heating Degree Days7.2 (Base 65)
Growing Degree Days7.8 (Base 50)
Averaged from 33 records on November 9, 2013
WEATHER CONDITIONS BREAKOUT
WIND DIRECTION BREAKOUT
WEATHER BY HOUR - NOVEMBER 9, 2013
[ °C ]   °F
Local TimeTemperatureDewpointHumidityBarometerVisibilityWind DirectionWind SpeedGust SpeedPrecipitationEventsConditions
12:30 AM51.8 °F35.6 °F54 %30.06 in3.7 miEast (100°)2.2 mphClear
1:00 AM48.2 °F37.4 °F66 %30.06 in4.3 miEast (100°)4.5 mphClear
2:00 AM50.0 °F38.0 °F52 %30.09 in6.0 miCalmClear
2:00 AM50.0 °F33.8 °F54 %30.06 in6.2 miCalmScattered Clouds
2:30 AM48.2 °F35.6 °F62 %30.06 in3.1 miVariable2.2 mphHaze
3:00 AM48.2 °F35.6 °F62 %30.06 in5.6 miVariable2.2 mphMostly Cloudy
4:00 AM48.2 °F35.6 °F62 %30.06 in6.2 miVariable2.2 mphScattered Clouds
5:00 AM46.4 °F37.4 °F71 %30.06 in5.0 miVariable2.2 mphScattered Clouds
5:00 AM44.0 °F35.0 °F61 %30.10 in6.0 miWSW (240°)2.2 mphClear
6:00 AM46.4 °F37.4 °F71 %30.09 in4.3 miSSE (150°)2.2 mphMostly Cloudy
7:00 AM48.2 °F37.4 °F66 %30.09 in5.6 miCalmScattered Clouds
8:00 AM47.0 °F37.0 °F58 %30.16 in6.0 miWest (280°)4.5 mphClear
8:00 AM46.4 °F35.6 °F66 %30.15 in6.2 miWNW (290°)4.5 mphMostly Cloudy
9:00 AM53.6 °F33.8 °F47 %30.18 in6.2 miNW (310°)4.5 mphMostly Cloudy
10:00 AM59.0 °F33.8 °F39 %30.18 in6.2 miWest (280°)4.5 mphOvercast
11:00 AM64.4 °F35.6 °F34 %30.21 in6.2 miWest (280°)6.7 mphOvercast
11:00 AM63.0 °F37.0 °F27 %30.21 in6.0 miWest (270°)6.7 mphOvercast
12:00 PM68.0 °F35.6 °F30 %30.18 in6.2 miNW (310°)6.7 mphMostly Cloudy
1:00 PM69.8 °F33.8 °F27 %30.18 in6.2 miNW (310°)8.9 mphPartly Cloudy
2:00 PM71.0 °F33.0 °F14 %30.19 in6.0 miWNW (300°)13.4 mphClear
2:00 PM69.8 °F33.8 °F27 %30.18 in6.2 miNW (310°)15.7 mphScattered Clouds
3:00 PM71.6 °F32.0 °F23 %30.18 in6.2 miNW (310°)13.4 mphMostly Cloudy
4:00 PM69.8 °F32.0 °F25 %30.21 in6.2 miNW (310°)8.9 mphMostly Cloudy
5:00 PM68.0 °F33.8 °F28 %30.21 in6.2 miNW (310°)8.9 mphPartly Cloudy
5:00 PM68.0 °F35.0 °F19 %30.21 in6.0 miNW (310°)8.9 mphClear
6:00 PM62.6 °F33.8 °F34 %30.24 in6.2 miWNW (290°)4.5 mphScattered Clouds
7:00 PM59.0 °F35.6 °F42 %30.24 in6.2 miWNW (290°)6.7 mphPartly Cloudy
8:00 PM58.0 °F39.0 °F38 %30.24 in6.0 miSSW (200°)2.2 mphScattered Clouds
8:00 PM59.0 °F37.4 °F45 %30.27 in5.0 miSSW (210°)2.2 mphPartly Cloudy
9:00 PM57.2 °F37.4 °F48 %30.27 in5.6 miWSW (240°)4.5 mphPartly Cloudy
10:00 PM55.4 °F37.4 °F51 %30.27 in6.2 miWSW (240°)4.5 mphPartly Cloudy
11:00 PM54.0 °F39.0 °F45 %30.30 in6.0 miSW (220°)4.5 mphClear
11:00 PM55.4 °F37.4 °F51 %30.27 in6.2 miSSW (210°)4.5 mphPartly Cloudy
Hourly data recorded from UTAA, located miles away from Kurtile, Turkmenistan







STORIES FROM OUR PARTNERS